Regional Weather Roundup
Issued by NWS Upton, NY

Current Version | Previous Version | Graphics & Text | Print | Product List | Glossary Off
Versions: 1 2 3 4 5 6 7 8 9 10 11 12 13 14 15 16 17 18 19 20 21 22 23 24 25 26 27 28 29 30 31 32 33 34 35 36 37 38 39 40 41 42 43 44 45 46 47 48 49 50

566
ASUS41 KOKX 191608
RWROKX

REGIONAL WEATHER ROUNDUP
NATIONAL WEATHER SERVICE NEW YORK NY
1100 AM EST THU JAN 19 2017

NOTE: "FAIR" INDICATES FEW OR NO CLOUDS BELOW 12,000 FEET WITH NO
SIGNIFICANT WEATHER AND/OR OBSTRUCTIONS TO VISIBILITY.

NYZ071-072-176-178-NJZ106-104-191700-
NEW YORK CITY METRO AREA

CITY           SKY/WX    TMP DP  RH WIND       PRES   REMARKS
Central Park   SUNNY     46  35  65 NW7       30.06F
Wall St Helipt MOSUNNY   48  36  61 CALM      30.05F
Bronx Bot Gard NOT AVBL
LaGuardia APRT MOSUNNY   48  36  63 NW7       30.04F
Kennedy INTL   MOSUNNY   48  34  58 NW9       30.05F
Breezy Point     N/A     46 N/A N/A NW8G14      N/A
Newark/Liberty MOSUNNY   47  35  63 NW10G24   30.04F
Teterboro      MOSUNNY   49  36  61 NW10      30.03F
$$

NYZ177-179-078>081-191700-
LONG ISLAND NEW YORK

CITY           SKY/WX    TMP DP  RH WIND       PRES   REMARKS
Jones Beach      N/A     45 N/A N/A NW7         N/A
Matinecock PT  NOT AVBL
Farmingdale    SUNNY     47  37  68 NW6       30.03F
MacArthur/ISP  MOSUNNY   47  36  65 N7        30.02F
Shirley        SUNNY     46  37  71 W5        30.03F
Westhampton    SUNNY     46  35  65 NW6       30.03F
Southampton    NOT AVBL
Bridgehampton  NOT AVBL
East Hampton   CLOUDY    43  35  72 N6        30.01F
Montauk          N/A     41  37  86 W8        30.02F
$$

NYZ052-065-067-191700-
HUDSON VALLEY

CITY           SKY/WX    TMP DP  RH WIND       PRES   REMARKS
White Plains   MOSUNNY   45  36  70 W7        30.00F
Newburgh       MOSUNNY   41  39  93 W6        30.04F
Montgomery     MOSUNNY   44  35  70 NW14      30.02F
Poughkeepsie   MOSUNNY   42  37  82 CALM      30.03F
Albany         LGT RAIN  41  34  76 W8        30.05S
$$

NJZ001-105-106-008-010-013-015-019>022-104-191700-
NEW JERSEY

CITY           SKY/WX    TMP DP  RH WIND       PRES   REMARKS
Newark/Liberty MOSUNNY   47  35  63 NW10G24   30.04F
Teterboro      MOSUNNY   49  36  61 NW10      30.03F
Caldwell       SUNNY     45  35  68 NW12      30.05F
Somerville     PTSUNNY   47  34  60 VRB6      30.04F
Linden           N/A     46  35  64 NW10      30.06F
Sussex         CLOUDY    42  35  76 VRB3      30.05F
Andover          N/A     42  35  76 VRB3      30.05F
Trenton        PTSUNNY   44  35  70 NW9       30.06F
Millville      SUNNY     48  38  68 N7        30.07F
Atlantic City  SUNNY     49  37  63 NW12      30.05F
Wrightstown    CLOUDY    45  37  72 N6        30.04F
Toms River     PTSUNNY   46  38  73 NW7       30.06F
Belmar         PTSUNNY   46  37  71 NW9       30.06F
$$

PAZ047>061-062-071-191700-
EASTERN PENNSYLVANIA

CITY           SKY/WX    TMP DP  RH WIND       PRES   REMARKS
Philadelphia   PTSUNNY   49  35  58 N10       30.08F
Allentown      CLOUDY    43  34  70 NW6       30.07F
Scranton       CLOUDY    39  37  92 CALM      30.06S
$$

CTZ002-004>006-009-010-012-RIZ004-006-007-MAZ004-011-015-191700-
SOUTHERN NEW ENGLAND
 IN CT

CITY           SKY/WX    TMP DP  RH WIND       PRES   REMARKS
Bradley INTL   CLOUDY    43  35  73 VRB3      30.02S
Hartford       CLOUDY    43  35  73 VRB6      30.03S
Danbury        SUNNY     43  36  76 NW6       30.02F
Wtrbury/Oxford PTSUNNY   39  34  81 NW3       30.02F
Bridgeport     SUNNY     43  37  79 SW8       30.02F
Meriden        CLOUDY    45  35  68 N3        30.02F
New Haven      PTSUNNY   43  36  76 VRB3      30.01F
Chester        CLOUDY    43  34  70 NW10G18   30.01F
Groton         PTSUNNY   44  35  70 NW6       30.00F
Wilimantic     PTSUNNY   45  36  70 NW10      30.01F

 IN RI

CITY           SKY/WX    TMP DP  RH WIND       PRES   REMARKS
Providence     PTSUNNY   45  35  68 W8        30.00F
Block Island   NOT AVBL
Westerly       CLOUDY    43  35  73 VRB6      30.01F
 IN MA

CITY           SKY/WX    TMP DP  RH WIND       PRES   REMARKS
Boston         PTSUNNY   40  35  83 W8        30.00F WCI  34
Worcester      SUNNY     37  33  85 W5        29.97S WCI  33
Westfield      PTSUNNY   43  35  73 N13       30.00F
Provincetown   CLOUDY    40  36  86 NW6       30.00F
Nantucket      MOSUNNY   43  37  79 NW8       29.98F
$$

ANZ330-335-338-340-345-350-353-355-191700-
COASTAL MARINE OBSERVATIONS


STATION/POSITION TIME  SKY/WX   TEMP    WIND        PRES    VSBY  WAVE
                                AIR SEA DIR/SP/G                  HT/PER
                 (UTC)          (F)     (DEG/KT/KT) (MB)    (MI)  (FT/S)
NY HARB ENTRANCE 1450            43 44  300/ 12/ 16 1017.7          4/10
20 S FIRE ISLAND 1450            43 45  290/  8/ 10 1017.5          5/ 9
GREAT SOUTH BAY  NOT AVBL
23 SSW MONTAUK P 1450            41 48  290/ 10/ 14 1017.7          5/ 9
15 E BARNEGAT LI 1530               48                N/A           6/10
HUDSON CANYON    1450            46 51              1017.3          8/11
KINGS POINT      1536            42 39              1017.2
EXECUTION ROCKS  1545            49     310/  6/  8   N/A
CENTRAL LI SOUND 1530            40     260/  8/ 10   N/A           0
EASTERN LI SOUND NOT AVBL
ROBBINS REEF     1536            45     330/ 12/ 15 1017.6
$$


>>>>>>>>>>>>>>>>>>>>>>>>>>>> KEY <<<<<<<<<<<<<<<<<<<<<<<<<<<
>                                                          <
>     SKY/WX - Sky Condition/Present Weather               <
>     TMP    - Temperature in Fahrenheit                   <
>     DP     - Dew Point in Fahrenheit                     <
>     RH     - Relative Humidity in Percent                <
>     WIND   - Direction (from) and Speed in MPH           <
>     PRES   - Mean Sea Level Pressure (inches of Hg)      <
>     WCI    - Wind Chill Index                            <
>     VSB    - VISIBILITY IN MILES                         <
>     HX     - HEAT INDEX                                  <
>     TC     - TEMPERATURE IN CELSIUS                      <
>     VRB    - VARIABLE WIND DIRECTION                     <
>                                                          <
>>>>>>>>>>>>>>>>>>>>>>>>>>>> KEY <<<<<<<<<<<<<<<<<<<<<<<<<<<




USA.gov is the U.S. government's official web portal to all federal, state and local government web resources and services.